{"data":{"norad_id":65503,"intl_designator":"2025-198M","name":"STARLINK-35126","alt_names":[],"object_type":"PAYLOAD","status":"ACTIVE","operator":null,"country":"US","launch_date":"2025-09-05","launch_site_code":"AFETR","launch_vehicle":null,"mission":null,"orbit_class":"UNKNOWN","rcs_meters":null,"size_class":null,"mass_kg":null,"dimensions":null,"purposes":["comms"],"wikipedia_slug":null,"has_3d_model":false,"image_url":null,"decayed_at":null,"tle_current":{"epoch":"2026-05-24T21:05:40.039296Z","epoch_age_seconds":88683,"freshness":"FRESH","line1":"1 65503U 25198M   26144.87893564  .00000065  00000+0  14313-4 0  9997","line2":"2 65503  53.1581 277.1995 0001039  95.1382 264.9737 15.30192211 40282","mean_motion":15.30192211,"eccentricity":0.0001039,"inclination_deg":53.1581,"raan_deg":277.1995,"arg_perigee_deg":95.1382,"mean_anomaly_deg":264.9737,"bstar":1.4313e-5,"rev_number":4028,"period_min":94.105824722434,"perigee_km":474.52626037162,"apogee_km":475.95039176438,"semimajor_km":6853.375326068,"source":"CELESTRAK","updated_at":"2026-05-25T13:38:20.841844Z"}}}